DLH23B EDDB-ENGM

Flight info

Callsign DLH23B
Flight time 1h 18m
Altitude 36000
Route SUKIP M748 ERNUD M726 NOBRI DCT NEDIK DCT RISMA DCT GIXUN DCT SABAK DCT XENTA DCT REGMA DCT LUNIP
Aircraft A346/H-SDE2E3FGHIJ3J4J5M1RWXY/LB1D1

Departure

Time 2026-05-05 11:08
Airport Berlin Brandenburg Airport (EDDB)

Arrival

Time 2026-05-05 12:27
Airport Oslo-Gardermoen International Airport (ENGM)
Time Latitude Longitude Altitude Speed Heading
2026-05-05 10:47 52.36414 13.50559 163 ft 0 kts 69°
2026-05-05 10:57 52.36414 13.50556 163 ft 2 kts 69°
2026-05-05 10:57 52.36404 13.50517 162 ft 4 kts 69°
2026-05-05 10:58 52.36395 13.50476 162 ft 4 kts 69°
2026-05-05 10:58 52.36386 13.50438 161 ft 2 kts 69°
2026-05-05 10:58 52.36376 13.50406 160 ft 4 kts 50°
2026-05-05 10:58 52.36360 13.50386 160 ft 4 kts 15°
2026-05-05 10:59 52.36340 13.50387 159 ft 4 kts 344°
2026-05-05 10:59 52.36316 13.50400 159 ft 4 kts 339°
2026-05-05 10:59 52.36291 13.50416 159 ft 4 kts 339°
2026-05-05 10:59 52.36285 13.50420 159 ft 0 kts 339°
2026-05-05 11:02 52.36314 13.50401 159 ft 13 kts 339°
2026-05-05 11:03 52.36417 13.50337 159 ft 16 kts 339°
2026-05-05 11:03 52.36532 13.50264 159 ft 19 kts 339°
2026-05-05 11:03 52.36670 13.50177 159 ft 21 kts 341°
2026-05-05 11:03 52.36817 13.50192 161 ft 21 kts 28°
2026-05-05 11:04 52.36882 13.50388 162 ft 20 kts 66°
2026-05-05 11:04 52.36938 13.50609 165 ft 22 kts 69°
2026-05-05 11:04 52.36997 13.50863 167 ft 25 kts 69°
2026-05-05 11:04 52.37065 13.51155 168 ft 29 kts 69°
2026-05-05 11:05 52.37144 13.51485 167 ft 33 kts 69°
2026-05-05 11:05 52.37229 13.51843 168 ft 35 kts 69°
2026-05-05 11:05 52.37316 13.52208 168 ft 35 kts 69°
2026-05-05 11:05 52.37401 13.52568 168 ft 29 kts 69°
2026-05-05 11:06 52.37510 13.52788 167 ft 24 kts 344°
2026-05-05 11:06 52.37653 13.52642 170 ft 23 kts 337°
2026-05-05 11:06 52.37710 13.52476 169 ft 18 kts 258°
2026-05-05 11:06 52.37702 13.52430 169 ft 0 kts 250°
2026-05-05 11:07 52.37702 13.52429 169 ft 3 kts 250°
2026-05-05 11:07 52.37601 13.52005 168 ft 77 kts 248°
2026-05-05 11:07 52.37318 13.50831 167 ft 142 kts 249°
2026-05-05 11:08 52.36862 13.48952 295 ft 184 kts 247°
2026-05-05 11:08 52.36383 13.46962 1076 ft 184 kts 249°
2026-05-05 11:08 52.35917 13.45004 1856 ft 183 kts 249°
2026-05-05 11:08 52.35450 13.43023 2437 ft 192 kts 249°
2026-05-05 11:09 52.34949 13.40904 2865 ft 208 kts 249°
2026-05-05 11:09 52.34396 13.38570 3282 ft 224 kts 249°
2026-05-05 11:09 52.33837 13.36094 3897 ft 232 kts 253°
2026-05-05 11:09 52.33502 13.33531 4850 ft 230 kts 262°
2026-05-05 11:10 52.33325 13.30946 5753 ft 229 kts 263°
2026-05-05 11:10 52.33171 13.28343 6596 ft 229 kts 263°
2026-05-05 11:10 52.33016 13.25741 7339 ft 231 kts 263°
2026-05-05 11:10 52.32851 13.23114 8051 ft 233 kts 261°
2026-05-05 11:11 52.32494 13.20520 8798 ft 235 kts 250°
2026-05-05 11:11 52.31844 13.18011 9473 ft 247 kts 244°
2026-05-05 11:11 52.31041 13.15399 9998 ft 265 kts 243°
2026-05-05 11:11 52.30277 13.12550 10491 ft 283 kts 250°
2026-05-05 11:12 52.30064 13.11450 10673 ft 290 kts 253°
2026-05-05 11:12 52.29658 13.08116 11166 ft 309 kts 261°
2026-05-05 11:12 52.29420 13.04522 11629 ft 327 kts 263°
2026-05-05 11:12 52.29200 13.00718 12040 ft 345 kts 263°
2026-05-05 11:13 52.28969 12.96711 12448 ft 362 kts 263°
2026-05-05 11:13 52.28725 12.92556 13111 ft 370 kts 263°
2026-05-05 11:13 52.28473 12.88309 13967 ft 373 kts 263°
2026-05-05 11:13 52.28216 12.84066 14711 ft 376 kts 263°
2026-05-05 11:14 52.27956 12.79806 15418 ft 379 kts 263°
2026-05-05 11:14 52.27689 12.75494 16097 ft 383 kts 262°
2026-05-05 11:14 52.27417 12.71142 16763 ft 387 kts 262°
2026-05-05 11:14 52.27140 12.66750 17453 ft 390 kts 262°
2026-05-05 11:15 52.26857 12.62302 18181 ft 394 kts 262°
2026-05-05 11:15 52.26572 12.57829 18823 ft 397 kts 262°
2026-05-05 11:15 52.26304 12.53314 19448 ft 401 kts 265°
2026-05-05 11:15 52.26588 12.48751 20082 ft 409 kts 282°
2026-05-05 11:16 52.27704 12.44440 20822 ft 417 kts 298°
2026-05-05 11:16 52.29530 12.40706 21555 ft 424 kts 309°
2026-05-05 11:16 52.31576 12.37200 22269 ft 428 kts 310°
2026-05-05 11:16 52.33720 12.33763 22922 ft 434 kts 313°
2026-05-05 11:17 52.35974 12.30448 23567 ft 438 kts 314°
2026-05-05 11:17 52.38282 12.27143 24135 ft 441 kts 314°
2026-05-05 11:17 52.40598 12.23834 24714 ft 444 kts 314°
2026-05-05 11:17 52.42933 12.20487 25307 ft 446 kts 314°
2026-05-05 11:18 52.45268 12.17125 25874 ft 448 kts 314°
2026-05-05 11:18 52.47618 12.13730 26451 ft 451 kts 314°
2026-05-05 11:18 52.49942 12.10365 27001 ft 453 kts 314°
2026-05-05 11:18 52.52345 12.06876 27565 ft 456 kts 314°
2026-05-05 11:19 52.54728 12.03410 28111 ft 458 kts 314°
2026-05-05 11:19 52.57092 11.99966 28676 ft 460 kts 313°
2026-05-05 11:19 52.59477 11.96489 29437 ft 457 kts 313°
2026-05-05 11:19 52.61851 11.93031 30126 ft 453 kts 313°
2026-05-05 11:20 52.64261 11.89694 30659 ft 453 kts 316°
2026-05-05 11:20 52.66744 11.86492 31253 ft 452 kts 317°
2026-05-05 11:20 52.69233 11.83345 31949 ft 449 kts 317°
2026-05-05 11:20 52.71708 11.80224 32617 ft 446 kts 317°
2026-05-05 11:21 52.74166 11.77119 33260 ft 444 kts 317°
2026-05-05 11:21 52.76627 11.73996 33900 ft 442 kts 316°
2026-05-05 11:21 52.79059 11.70900 34402 ft 441 kts 316°
2026-05-05 11:21 52.81491 11.67794 34779 ft 443 kts 317°
2026-05-05 11:22 52.83943 11.64660 35050 ft 447 kts 317°
2026-05-05 11:22 52.86486 11.61602 35327 ft 455 kts 322°
2026-05-05 11:22 52.88295 11.59824 35525 ft 460 kts 326°
2026-05-05 11:22 52.91218 11.57558 35827 ft 468 kts 333°
2026-05-05 11:23 52.94333 11.55850 35886 ft 476 kts 340°
2026-05-05 11:23 53.00981 11.54445 35895 ft 489 kts 355°
2026-05-05 11:24 53.07802 11.55455 35898 ft 494 kts
2026-05-05 11:24 53.14618 11.56935 35905 ft 494 kts
2026-05-05 11:25 53.21434 11.58365 35905 ft 494 kts
2026-05-05 11:25 53.28229 11.60260 35911 ft 497 kts
2026-05-05 11:26 53.35017 11.62787 35912 ft 497 kts
2026-05-05 11:26 53.41765 11.65355 35913 ft 497 kts
2026-05-05 11:27 53.48508 11.67907 35916 ft 497 kts
2026-05-05 11:27 53.55245 11.70452 35920 ft 496 kts
2026-05-05 11:28 53.61982 11.73002 35918 ft 496 kts
2026-05-05 11:28 53.68715 11.75557 35924 ft 496 kts
2026-05-05 11:29 53.75441 11.78117 35926 ft 495 kts
2026-05-05 11:29 53.82163 11.80685 35930 ft 495 kts
2026-05-05 11:30 53.88883 11.83260 35931 ft 495 kts
2026-05-05 11:30 53.95595 11.85841 35932 ft 495 kts
2026-05-05 11:31 54.02315 11.88433 35934 ft 495 kts
2026-05-05 11:31 54.08986 11.91014 35929 ft 495 kts
2026-05-05 11:32 54.15810 11.93664 35936 ft 495 kts
2026-05-05 11:32 54.22526 11.96279 35942 ft 495 kts
2026-05-05 11:33 54.29199 11.98885 35941 ft 495 kts
2026-05-05 11:33 54.35910 12.01512 35942 ft 495 kts
2026-05-05 11:34 54.42622 12.04127 35943 ft 494 kts
2026-05-05 11:34 54.49386 12.05908 35937 ft 490 kts
2026-05-05 11:35 54.56193 12.06388 35945 ft 487 kts 355°
2026-05-05 11:35 54.62963 12.06180 35947 ft 486 kts 354°
2026-05-05 11:36 54.69722 12.05923 35945 ft 486 kts 355°
2026-05-05 11:36 54.76527 12.05687 35947 ft 486 kts 355°
2026-05-05 11:37 54.83324 12.05464 35946 ft 486 kts 355°
2026-05-05 11:37 54.90101 12.05245 35949 ft 485 kts 355°
2026-05-05 11:38 54.96874 12.05027 35950 ft 485 kts 355°
2026-05-05 11:38 55.03624 12.04809 35943 ft 484 kts 355°
2026-05-05 11:39 55.10321 12.04592 35946 ft 484 kts 355°
2026-05-05 11:39 55.17061 12.04373 35954 ft 484 kts 355°
2026-05-05 11:40 55.23795 12.04154 35948 ft 483 kts 355°
2026-05-05 11:40 55.30515 12.03934 35955 ft 483 kts 355°
2026-05-05 11:41 55.37232 12.03713 35958 ft 483 kts 355°
2026-05-05 11:41 55.43959 12.03492 35964 ft 482 kts 355°
2026-05-05 11:42 55.50687 12.03270 35960 ft 482 kts 355°
2026-05-05 11:42 55.57454 12.03045 35966 ft 482 kts 355°
2026-05-05 11:43 55.64240 12.02820 35966 ft 482 kts 355°
2026-05-05 11:43 55.71056 12.02591 35965 ft 482 kts 355°
2026-05-05 11:44 55.77765 12.02368 35961 ft 482 kts 355°
2026-05-05 11:44 55.84511 12.02141 35970 ft 483 kts 354°
2026-05-05 11:45 55.91197 12.01915 35961 ft 483 kts 354°
2026-05-05 11:45 55.97910 12.01688 35956 ft 483 kts 354°
2026-05-05 11:46 56.04682 12.01457 35964 ft 483 kts 354°
2026-05-05 11:46 56.11401 12.01227 35967 ft 483 kts 354°
2026-05-05 11:47 56.18124 12.00996 35970 ft 483 kts 354°
2026-05-05 11:47 56.24844 12.00765 35967 ft 483 kts 354°
2026-05-05 11:48 56.34935 12.00417 35964 ft 483 kts 354°
2026-05-05 11:48 56.41651 12.00183 35970 ft 483 kts 354°
2026-05-05 11:49 56.48378 11.99948 35969 ft 483 kts 353°
2026-05-05 11:49 56.55105 11.99713 35966 ft 483 kts 353°
2026-05-05 11:50 56.61823 11.99476 35964 ft 483 kts 353°
2026-05-05 11:50 56.68553 11.99238 35966 ft 483 kts 353°
2026-05-05 11:51 56.75278 11.99000 35966 ft 484 kts 353°
2026-05-05 11:51 56.82012 11.98758 35965 ft 484 kts 353°
2026-05-05 11:52 56.88738 11.98514 35966 ft 484 kts 353°
2026-05-05 11:52 56.95475 11.98267 35958 ft 484 kts 353°
2026-05-05 11:53 57.02198 11.97956 35966 ft 482 kts 351°
2026-05-05 11:53 57.08785 11.96699 35966 ft 477 kts 345°
2026-05-05 11:54 57.15341 11.94810 35967 ft 477 kts 345°
2026-05-05 11:54 57.21896 11.92874 35965 ft 477 kts 345°
2026-05-05 11:55 57.28449 11.90954 35967 ft 477 kts 345°
2026-05-05 11:55 57.34997 11.89037 35967 ft 476 kts 344°
2026-05-05 11:56 57.41543 11.87118 35962 ft 476 kts 344°
2026-05-05 11:56 57.48122 11.85198 35947 ft 476 kts 344°
2026-05-05 11:57 57.54667 11.83278 35951 ft 476 kts 344°
2026-05-05 11:57 57.61205 11.81346 35949 ft 476 kts 344°
2026-05-05 11:58 57.67755 11.79401 35943 ft 476 kts 344°
2026-05-05 11:58 57.74294 11.77451 35939 ft 476 kts 344°
2026-05-05 11:59 57.80942 11.75460 35939 ft 476 kts 344°
2026-05-05 11:59 57.87506 11.73487 35946 ft 476 kts 344°
2026-05-05 12:00 57.94150 11.71482 35953 ft 476 kts 343°
2026-05-05 12:00 58.00716 11.69492 35952 ft 476 kts 343°
2026-05-05 12:01 58.07310 11.67484 35952 ft 476 kts 343°
2026-05-05 12:01 58.13825 11.65499 35447 ft 469 kts 343°
2026-05-05 12:02 58.17048 11.64517 34830 ft 469 kts 342°
2026-05-05 12:02 58.20270 11.63539 34384 ft 466 kts 342°
2026-05-05 12:02 58.23483 11.62566 33921 ft 462 kts 342°
2026-05-05 12:02 58.26690 11.61584 33159 ft 461 kts 342°
2026-05-05 12:03 58.29903 11.60590 31798 ft 462 kts 342°
2026-05-05 12:03 58.33109 11.59591 30484 ft 463 kts 342°
2026-05-05 12:03 58.36290 11.58602 29007 ft 464 kts 342°
2026-05-05 12:03 58.39485 11.57608 27337 ft 466 kts 342°
2026-05-05 12:04 58.42764 11.56587 26169 ft 465 kts 342°
2026-05-05 12:04 58.45939 11.55614 26039 ft 451 kts 342°
2026-05-05 12:04 58.49050 11.54654 25387 ft 449 kts 342°
2026-05-05 12:04 58.52144 11.53681 24761 ft 448 kts 342°
2026-05-05 12:05 58.55246 11.52705 24375 ft 443 kts 342°
2026-05-05 12:05 58.58290 11.51744 24115 ft 444 kts 342°
2026-05-05 12:05 58.61291 11.50796 23756 ft 442 kts 342°
2026-05-05 12:05 58.64314 11.49844 23315 ft 438 kts 342°
2026-05-05 12:06 58.67306 11.48904 22770 ft 434 kts 341°
2026-05-05 12:06 58.70276 11.47970 22150 ft 431 kts 341°
2026-05-05 12:06 58.73221 11.47048 21583 ft 427 kts 341°
2026-05-05 12:06 58.76165 11.46124 21044 ft 423 kts 341°
2026-05-05 12:07 58.79053 11.45213 20542 ft 418 kts 341°
2026-05-05 12:07 58.81901 11.44315 20213 ft 411 kts 341°
2026-05-05 12:07 58.84737 11.43408 19964 ft 414 kts 340°
2026-05-05 12:07 58.87571 11.42497 19668 ft 413 kts 340°
2026-05-05 12:08 58.90401 11.41592 19282 ft 410 kts 340°
2026-05-05 12:08 58.93208 11.40694 18868 ft 407 kts 340°
2026-05-05 12:08 58.95988 11.39803 18456 ft 404 kts 340°
2026-05-05 12:08 58.98769 11.38908 17996 ft 400 kts 340°
2026-05-05 12:09 59.01473 11.38040 17822 ft 387 kts 340°
2026-05-05 12:09 59.04075 11.37212 17731 ft 372 kts 339°
2026-05-05 12:09 59.06584 11.36408 17611 ft 358 kts 339°
2026-05-05 12:09 59.09005 11.35627 17502 ft 346 kts 339°
2026-05-05 12:10 59.11297 11.34827 17316 ft 322 kts 335°
2026-05-05 12:10 59.13400 11.33920 17299 ft 300 kts 333°
2026-05-05 12:10 59.15397 11.32991 17273 ft 291 kts 333°
2026-05-05 12:10 59.17353 11.32088 17176 ft 288 kts 334°
2026-05-05 12:11 59.19316 11.31420 17023 ft 290 kts 338°
2026-05-05 12:11 59.21328 11.30940 16662 ft 291 kts 340°
2026-05-05 12:11 59.23339 11.30515 16366 ft 289 kts 341°
2026-05-05 12:11 59.25336 11.30104 16076 ft 287 kts 341°
2026-05-05 12:12 59.26677 11.29829 15888 ft 286 kts 342°
2026-05-05 12:12 59.28647 11.29422 15585 ft 284 kts 342°
2026-05-05 12:12 59.31232 11.28888 15206 ft 281 kts 343°
2026-05-05 12:12 59.32544 11.28616 15007 ft 279 kts 343°
2026-05-05 12:13 59.34472 11.28214 14723 ft 278 kts 343°
2026-05-05 12:13 59.36384 11.27816 14411 ft 276 kts 344°
2026-05-05 12:13 59.38295 11.27416 14122 ft 274 kts 345°
2026-05-05 12:13 59.40187 11.27020 13831 ft 272 kts 345°
2026-05-05 12:14 59.42086 11.26618 13253 ft 278 kts 346°
2026-05-05 12:14 59.44026 11.26204 12747 ft 281 kts 347°
2026-05-05 12:14 59.45929 11.25574 12345 ft 275 kts 341°
2026-05-05 12:14 59.47799 11.24654 11942 ft 273 kts 340°
2026-05-05 12:15 59.49635 11.23710 11542 ft 272 kts 340°
2026-05-05 12:15 59.51466 11.22782 11155 ft 271 kts 341°
2026-05-05 12:15 59.53289 11.21872 10899 ft 269 kts 342°
2026-05-05 12:15 59.55121 11.20972 10906 ft 272 kts 342°
2026-05-05 12:16 59.56935 11.20087 10897 ft 272 kts 342°
2026-05-05 12:16 59.58803 11.19181 10852 ft 269 kts 342°
2026-05-05 12:16 59.60599 11.18307 10439 ft 269 kts 342°
2026-05-05 12:16 59.62423 11.17414 10015 ft 270 kts 343°
2026-05-05 12:17 59.64246 11.16525 9660 ft 269 kts 343°
2026-05-05 12:17 59.66058 11.15647 9245 ft 267 kts 343°
2026-05-05 12:17 59.67866 11.14770 8725 ft 266 kts 343°
2026-05-05 12:17 59.69653 11.13902 8038 ft 264 kts 343°
2026-05-05 12:18 59.71421 11.13041 7473 ft 259 kts 343°
2026-05-05 12:18 59.73175 11.12186 6843 ft 258 kts 343°
2026-05-05 12:18 59.74908 11.11339 6249 ft 255 kts 343°
2026-05-05 12:18 59.76633 11.10495 5658 ft 254 kts 343°
2026-05-05 12:19 59.78367 11.09646 5133 ft 249 kts 343°
2026-05-05 12:19 59.80099 11.08795 5082 ft 252 kts 343°
2026-05-05 12:19 59.81831 11.07941 5016 ft 249 kts 343°
2026-05-05 12:19 59.83533 11.07109 4685 ft 249 kts 343°
2026-05-05 12:20 59.85240 11.06271 4302 ft 249 kts 343°
2026-05-05 12:20 59.86966 11.05423 4041 ft 247 kts 343°
2026-05-05 12:20 59.88861 11.04488 3986 ft 249 kts 343°
2026-05-05 12:20 59.90577 11.03640 3998 ft 249 kts 343°
2026-05-05 12:21 59.92291 11.02791 3985 ft 249 kts 343°
2026-05-05 12:21 59.93992 11.01952 3959 ft 246 kts 343°
2026-05-05 12:21 59.95611 11.01157 3958 ft 228 kts 342°
2026-05-05 12:21 59.97092 11.00445 3979 ft 210 kts 347°
2026-05-05 12:22 59.98516 11.00286 3990 ft 191 kts 359°
2026-05-05 12:22 59.99866 11.00712 3949 ft 171 kts
2026-05-05 12:22 60.01015 11.01265 3948 ft 165 kts
2026-05-05 12:22 60.02125 11.01857 3902 ft 164 kts
2026-05-05 12:23 60.03221 11.02472 3734 ft 164 kts 10°
2026-05-05 12:23 60.04317 11.03099 3500 ft 164 kts 11°
2026-05-05 12:23 60.05409 11.03732 3279 ft 162 kts 11°
2026-05-05 12:23 60.06485 11.04358 3019 ft 161 kts 10°
2026-05-05 12:24 60.07559 11.04981 2795 ft 161 kts 10°
2026-05-05 12:24 60.08632 11.05602 2592 ft 160 kts 11°
2026-05-05 12:24 60.09702 11.06224 2395 ft 159 kts 11°
2026-05-05 12:24 60.10769 11.06845 2142 ft 160 kts 10°
2026-05-05 12:25 60.11836 11.07462 1938 ft 160 kts 10°
2026-05-05 12:25 60.12903 11.08078 1726 ft 159 kts 11°
2026-05-05 12:25 60.13971 11.08695 1455 ft 159 kts 11°
2026-05-05 12:25 60.15036 11.09313 1231 ft 160 kts 12°
2026-05-05 12:26 60.16111 11.09933 1009 ft 161 kts 13°
2026-05-05 12:26 60.17204 11.10567 805 ft 164 kts 13°
2026-05-05 12:26 60.18266 11.11173 688 ft 142 kts 15°
2026-05-05 12:26 60.19003 11.11596 690 ft 78 kts 16°
2026-05-05 12:27 60.19333 11.11788 695 ft 33 kts 16°
2026-05-05 12:27 60.19540 11.11906 688 ft 31 kts 15°
2026-05-05 12:27 60.19750 11.12026 691 ft 32 kts 16°
2026-05-05 12:27 60.19945 11.12137 695 ft 19 kts 14°
2026-05-05 12:28 60.20045 11.12042 690 ft 16 kts 299°
2026-05-05 12:28 60.20088 11.11811 694 ft 17 kts 273°
2026-05-05 12:28 60.20034 11.11759 690 ft 15 kts 168°
2026-05-05 12:28 60.19925 11.11734 694 ft 18 kts 196°
2026-05-05 12:29 60.19795 11.11659 696 ft 21 kts 196°
2026-05-05 12:29 60.19643 11.11569 690 ft 23 kts 203°
2026-05-05 12:29 60.19649 11.11420 691 ft 14 kts 353°
2026-05-05 12:29 60.19754 11.11361 691 ft 16 kts 319°
2026-05-05 12:30 60.19813 11.11139 686 ft 19 kts 289°
2026-05-05 12:30 60.19855 11.10862 687 ft 22 kts 285°
2026-05-05 12:30 60.19899 11.10546 685 ft 25 kts 285°
2026-05-05 12:30 60.19947 11.10196 691 ft 27 kts 285°
2026-05-05 12:31 60.19969 11.09931 683 ft 13 kts 234°
2026-05-05 12:31 60.19864 11.09847 682 ft 18 kts 195°
2026-05-05 12:31 60.19763 11.09804 683 ft 9 kts 162°
2026-05-05 12:31 60.19738 11.09900 682 ft 0 kts 103°
2026-05-05 12:32 60.19736 11.09912 686 ft 2 kts 103°
2026-05-05 12:32 60.19734 11.09933 685 ft 1 kts 104°
2026-05-05 12:32 60.19731 11.09958 689 ft 2 kts 104°
2026-05-05 12:32 60.19729 11.09969 689 ft 0 kts 104°